This demonstration page uses our WeatherBlox Daily Observations layout. Learn more.

Left ArrowRight Arrow

34.02893, -84.19858

Hourly Observations for November 2, 2019

Temp ( °F °C ) Dew Point ( °F °C ) Humidity (%) Winds ( mph kmh ) Pressure ( in mb ) Visibility ( mi km ) Precip ( " mm )
12:53 am 00:53 Clear 38 3.3 36 2.2 93 93 Calm 30.24 1024 9 14 0.00 0.00
1:53 am 01:53 Clear 36 2.2 35 1.7 97 97 Calm 30.24 1024 7 11 0.00 0.00
2:53 am 02:53 Clear 36 2.2 34 1.1 93 93 Calm 30.23 1024 7 11 0.00 0.00
3:53 am 03:53 Clear with Mist and Fog 35 1.7 34 1.1 96 96 Calm 30.22 1023 6 10 0.00 0.00
4:53 am 04:53 Clear with Mist and Fog 35 1.7 34 1.1 96 96 Calm 30.23 1024 6 10 0.00 0.00
5:53 am 05:53 Clear 35 1.7 34 1.1 96 96 Calm 30.23 1024 7 11 0.00 0.00
6:00 am 06:00 Partly Cloudy 34 1.1 33 0.6 97 97 Calm 30.26 1025 8 13 0.00 0.00
6:53 am 06:53 Clear with Mist and Fog 34 1.1 33 0.6 97 97 Calm 30.24 1024 6 10 0.00 0.00
7:53 am 07:53 Clear with Mist and Fog 34 1.1 33 0.6 97 97 Calm 30.24 1024 6 10 0.00 0.00
8:06 am 08:06 Partly Cloudy with Mist and Fog 34 1.1 33 0.6 97 97 Calm 30.26 1025 6 10 0.00 0.00
8:53 am 08:53 Sunny 38 3.3 37 2.8 97 97 WNW 3 6 30.25 1024 8 13 0.00 0.00
9:02 am 09:02 Mostly Sunny 38 3.3 37 2.8 97 97 WNW 3 6 30.26 1025 8 13 0.00 0.00
9:53 am 09:53 Sunny 43 6.1 39 3.9 86 86 Calm 30.25 1025 9 14 0.00 0.00
10:53 am 10:53 Sunny 49 9.4 42 5.6 77 77 Calm 30.24 1024 10 16 0.00 0.00
11:53 am 11:53 Sunny 52 11.1 39 3.9 61 61 W 9 15 30.24 1024 10 16 0.00 0.00
12:53 pm 12:53 Sunny 54 12.2 37 2.8 53 53 NW 3 6 30.22 1023 10 16 0.00 0.00
1:53 pm 13:53 Sunny 58 14.4 36 2.2 44 44 WNW 13 20 30.19 1022 10 16 0.00 0.00
2:53 pm 14:53 Sunny 58 14.4 29 -1.7 33 33 NW 16 26 30.19 1022 10 16 0.00 0.00
3:53 pm 15:53 Sunny 58 14.4 32 0 38 38 NW 12 19 30.19 1022 10 16 0.00 0.00
4:53 pm 16:53 Sunny 58 14.4 28 -2.2 32 32 NW 14 22 30.19 1022 10 16 0.00 0.00
5:53 pm 17:53 Sunny 56 13.3 26 -3.3 32 32 NW 10 17 30.19 1022 10 16 0.00 0.00
6:53 pm 18:53 Clear 52 11.1 27 -2.8 38 38 NNW 9 15 30.22 1023 10 16 0.00 0.00
7:53 pm 19:53 Clear 48 8.9 29 -1.7 48 48 NNW 5 7 30.22 1023 10 16 0.00 0.00
8:53 pm 20:53 Clear 44 6.7 31 -0.6 60 60 NNW 5 7 30.23 1024 10 16 0.00 0.00
9:53 pm 21:53 Clear 41 5 33 0.6 73 73 Calm 30.23 1024 10 16 0.00 0.00
10:53 pm 22:53 Clear 40 4.4 33 0.6 77 77 Calm 30.23 1024 10 16 0.00 0.00
11:53 pm 23:53 Clear 41 5 32 0 70 70 NNW 5 7 30.23 1024 10 16 0.00 0.00

Powered by AerisWeather